Precipitable_Water
0.83 0.79 0.74 0.70 0.68 0.67 0.65 0.60 0.62 0.56 0.63 0.71 0.70 0.58 0.54 0.58 0.61 0.68 0.67 0.82 0.84 0.81 0.92 0.89 0.86 0.76 0.71 0.65 0.64 0.61 0.31 0.27 0.20 0.23 0.25 0.31 0.30 0.34 0.35 0.34 0.37 0.37 0.44 0.50 0.66
0.81 0.77 0.74 0.69 0.67 0.67 0.62 0.62 0.61 0.54 0.61 0.70 0.66 0.53 0.47 0.51 0.53 0.53 0.67 0.70 0.73 0.73 0.73 0.66 0.62 0.60 0.53 0.53 0.53 0.41 0.30 0.22 0.24 0.24 0.22 0.22 0.21 0.21 0.19 0.18 0.19 0.24 0.35 0.52 0.64
0.77 0.75 0.71 0.69 0.66 0.63 0.62 0.58 0.56 0.53 0.62 0.69 0.59 0.46 0.44 0.50 0.39 0.42 0.49 0.51 0.52 0.58 0.63 0.60 0.56 0.51 0.41 0.45 0.39 0.36 0.23 0.25 0.21 0.21 0.22 0.20 0.20 0.23 0.20 0.14 0.17 0.21 0.28 0.40 0.53
0.73 0.71 0.68 0.65 0.64 0.60 0.55 0.55 0.53 0.55 0.62 0.65 0.51 0.43 0.42 0.49 0.17 0.40 0.32 0.33 0.40 0.50 0.51 0.46 0.46 0.41 0.38 0.32 0.36 0.27 0.26 0.24 0.22 0.25 0.24 0.20 0.23 0.18 0.20 0.17 0.21 0.23 0.28 0.31 0.44
0.69 0.66 0.62 0.60 0.56 0.52 0.52 0.53 0.53 0.58 0.61 0.57 0.44 0.43 0.40 0.30 0.24 0.37 0.32 0.33 0.37 0.37 0.32 0.32 0.31 0.30 0.23 0.26 0.25 0.21 0.20 0.23 0.24 0.23 0.23 0.22 0.18 0.20 0.19 0.22 0.25 0.26 0.27 0.27 0.30
0.63 0.61 0.57 0.54 0.50 0.49 0.51 0.54 0.56 0.58 0.57 0.48 0.41 0.42 0.38 0.21 0.32 0.35 0.30 0.29 0.28 0.31 0.31 0.31 0.29 0.30 0.21 0.19 0.20 0.21 0.22 0.20 0.18 0.15 0.21 0.19 0.19 0.23 0.20 0.24 0.24 0.26 0.28 0.29 0.30
0.57 0.55 0.52 0.50 0.48 0.50 0.54 0.55 0.55 0.55 0.51 0.40 0.39 0.41 0.29 0.26 0.34 0.31 0.30 0.28 0.27 0.27 0.29 0.33 0.30 0.24 0.27 0.19 0.27 0.23 0.15 0.15 0.19 0.23 0.23 0.24 0.18 0.17 0.19 0.23 0.22 0.27 0.27 0.26 0.25
0.52 0.50 0.48 0.48 0.50 0.53 0.54 0.53 0.53 0.50 0.40 0.38 0.41 0.42 0.20 0.28 0.34 0.28 0.29 0.27 0.30 0.30 0.28 0.30 0.29 0.24 0.22 0.25 0.19 0.15 0.17 0.13 0.20 0.24 0.23 0.21 0.11 0.17 0.20 0.22 0.20 0.22 0.23 0.24 0.32
0.49 0.49 0.50 0.52 0.53 0.52 0.52 0.52 0.50 0.43 0.40 0.39 0.39 0.34 0.22 0.31 0.24 0.25 0.28 0.24 0.27 0.30 0.33 0.35 0.31 0.25 0.24 0.20 0.15 0.18 0.12 0.13 0.14 0.19 0.19 0.21 0.15 0.21 0.27 0.26 0.25 0.27 0.30 0.34 0.34
0.50 0.52 0.52 0.51 0.51 0.51 0.50 0.51 0.47 0.43 0.42 0.42 0.36 0.23 0.24 0.23 0.25 0.26 0.28 0.28 0.26 0.27 0.28 0.31 0.27 0.18 0.21 0.19 0.10 0.12 0.13 0.15 0.14 0.19 0.25 0.22 0.20 0.22 0.23 0.26 0.29 0.32 0.34 0.33 0.33
0.52 0.50 0.49 0.50 0.50 0.50 0.47 0.47 0.39 0.31 0.34 0.28 0.24 0.25 0.29 0.29 0.30 0.27 0.30 0.26 0.28 0.27 0.20 0.25 0.16 0.15 0.18 0.21 0.22 0.21 0.19 0.18 0.20 0.24 0.23 0.21 0.19 0.19 0.28 0.30 0.30 0.30 0.29 0.31 0.33
0.55 0.52 0.49 0.48 0.51 0.54 0.64 0.51 0.49 0.43 0.25 0.34 0.30 0.30 0.32 0.32 0.27 0.30 0.35 0.25 0.23 0.18 0.24 0.24 0.21 0.29 0.31 0.29 0.25 0.22 0.19 0.17 0.20 0.25 0.23 0.19 0.18 0.27 0.28 0.29 0.30 0.30 0.31 0.33 0.34
0.56 0.52 0.46 0.51 0.58 0.58 0.54 0.50 0.62 0.59 0.36 0.34 0.38 0.35 0.33 0.38 0.29 0.28 0.30 0.29 0.26 0.25 0.27 0.23 0.26 0.30 0.26 0.23 0.20 0.19 0.18 0.18 0.19 0.22 0.21 0.20 0.18 0.25 0.29 0.32 0.34 0.33 0.33 0.33 0.32
0.58 0.48 0.47 0.54 0.48 0.54 0.46 0.53 0.57 0.55 0.25 0.28 0.32 0.37 0.39 0.36 0.31 0.42 0.41 0.35 0.31 0.26 0.26 0.22 0.27 0.25 0.23 0.21 0.22 0.15 0.23 0.22 0.20 0.19 0.13 0.24 0.15 0.24 0.30 0.31 0.31 0.29 0.30 0.32 0.33
0.61 0.52 0.57 0.63 0.48 0.48 0.56 0.57 0.57 0.46 0.19 0.40 0.41 0.51 0.44 0.37 0.40 0.41 0.46 0.37 0.25 0.25 0.25 0.18 0.22 0.22 0.21 0.22 0.27 0.20 0.27 0.26 0.24 0.20 0.21 0.24 0.23 0.26 0.32 0.25 0.25 0.26 0.28 0.28 0.32
0.76 0.64 0.63 0.65 0.67 0.62 0.66 0.62 0.55 0.23 0.17 0.34 0.38 0.36 0.36 0.37 0.36 0.38 0.39 0.40 0.36 0.28 0.28 0.25 0.33 0.30 0.29 0.31 0.32 0.32 0.26 0.20 0.19 0.20 0.15 0.21 0.23 0.25 0.28 0.24 0.26 0.28 0.29 0.29 0.30
0.64 0.66 0.66 0.65 0.53 0.64 0.59 0.46 0.19 0.19 0.38 0.30 0.30 0.31 0.31 0.30 0.28 0.26 0.28 0.25 0.22 0.15 0.16 0.24 0.29 0.35 0.33 0.27 0.30 0.25 0.17 0.11 0.13 0.14 0.14 0.24 0.22 0.24 0.26 0.28 0.28 0.28 0.29 0.29 0.29
0.57 0.57 0.51 0.50 0.61 0.58 0.48 0.31 0.20 0.31 0.31 0.37 0.29 0.27 0.25 0.29 0.28 0.20 0.26 0.26 0.30 0.21 0.18 0.17 0.16 0.28 0.26 0.25 0.21 0.21 0.21 0.13 0.09 0.10 0.13 0.18 0.14 0.20 0.26 0.29 0.29 0.29 0.29 0.27 0.27
0.55 0.46 0.37 0.36 0.52 0.52 0.39 0.23 0.27 0.29 0.30 0.24 0.26 0.25 0.29 0.29 0.20 0.20 0.26 0.26 0.27 0.21 0.14 0.15 0.17 0.27 0.26 0.25 0.20 0.18 0.14 0.20 0.15 0.17 0.13 0.14 0.18 0.21 0.23 0.25 0.26 0.26 0.27 0.27 0.26
0.50 0.38 0.26 0.35 0.49 0.50 0.35 0.28 0.29 0.31 0.26 0.26 0.22 0.24 0.21 0.21 0.17 0.16 0.20 0.27 0.25 0.25 0.22 0.17 0.11 0.14 0.21 0.22 0.21 0.18 0.22 0.15 0.15 0.09 0.09 0.11 0.14 0.16 0.20 0.23 0.26 0.26 0.26 0.26 0.26
0.58 0.42 0.27 0.38 0.51 0.43 0.32 0.32 0.28 0.27 0.27 0.25 0.23 0.20 0.21 0.18 0.15 0.14 0.20 0.25 0.28 0.19 0.19 0.17 0.14 0.13 0.16 0.14 0.14 0.15 0.17 0.18 0.16 0.15 0.10 0.09 0.11 0.18 0.20 0.22 0.22 0.21 0.19 0.21 0.24
0.43 0.28 0.31 0.39 0.31 0.37 0.30 0.33 0.28 0.25 0.23 0.22 0.23 0.22 0.19 0.17 0.15 0.15 0.18 0.23 0.29 0.22 0.15 0.18 0.16 0.12 0.12 0.18 0.21 0.22 0.18 0.17 0.13 0.12 0.16 0.15 0.12 0.23 0.23 0.22 0.21 0.21 0.22 0.24 0.28
0.28 0.26 0.29 0.33 0.23 0.25 0.27 0.26 0.24 0.22 0.22 0.22 0.20 0.19 0.17 0.16 0.13 0.16 0.18 0.27 0.24 0.20 0.17 0.19 0.15 0.12 0.14 0.21 0.24 0.21 0.22 0.22 0.22 0.21 0.16 0.15 0.13 0.22 0.22 0.21 0.21 0.23 0.24 0.25 0.29
0.33 0.27 0.26 0.27 0.28 0.24 0.22 0.21 0.19 0.23 0.21 0.22 0.20 0.20 0.18 0.17 0.18 0.16 0.18 0.26 0.27 0.25 0.27 0.26 0.19 0.14 0.12 0.14 0.18 0.17 0.19 0.21 0.20 0.16 0.14 0.15 0.17 0.18 0.20 0.21 0.23 0.24 0.27 0.29 0.30
0.36 0.28 0.32 0.24 0.24 0.24 0.23 0.24 0.22 0.21 0.22 0.22 0.20 0.19 0.16 0.15 0.16 0.17 0.20 0.22 0.26 0.30 0.29 0.27 0.19 0.21 0.20 0.20 0.20 0.19 0.18 0.20 0.20 0.20 0.17 0.15 0.17 0.20 0.22 0.22 0.25 0.28 0.28 0.29 0.29
0.34 0.30 0.30 0.26 0.25 0.24 0.24 0.22 0.23 0.21 0.22 0.20 0.19 0.22 0.20 0.17 0.19 0.17 0.21 0.21 0.21 0.28 0.27 0.29 0.19 0.21 0.17 0.20 0.21 0.19 0.21 0.20 0.21 0.20 0.20 0.19 0.17 0.22 0.24 0.27 0.27 0.27 0.27 0.30 0.32
0.43 0.42 0.35 0.28 0.25 0.24 0.26 0.24 0.24 0.23 0.23 0.25 0.24 0.22 0.20 0.24 0.27 0.28 0.28 0.27 0.26 0.25 0.25 0.24 0.22 0.20 0.15 0.20 0.19 0.15 0.17 0.18 0.19 0.20 0.19 0.15 0.18 0.23 0.21 0.23 0.25 0.27 0.30 0.31 0.32
Wind_Speed
23 23 23 24 23 22 21 21 21 20 20 18 16 14 13 12 12 12 11 10 9 8 7 7 7 8 7 8 8 7 7 9 10 10 12 13 13 15 15 13 14 14 15 16 15
22 22 23 23 22 21 21 22 21 20 20 18 15 13 12 11 12 11 11 10 9 8 7 7 7 7 8 9 9 8 8 11 10 13 14 15 14 17 15 17 16 16 17 14 13
22 22 22 22 21 20 21 22 21 21 19 17 14 12 11 10 10 10 9 10 9 9 9 9 9 9 9 9 10 10 11 12 15 16 15 16 16 16 15 16 16 16 16 15 15
21 21 21 20 20 20 21 22 21 20 19 16 13 11 10 11 10 9 8 8 8 8 8 9 9 9 9 10 11 12 14 15 16 16 16 16 17 17 17 20 18 19 18 16 17
20 20 20 20 19 20 22 21 21 20 18 15 13 11 11 9 7 7 7 6 6 6 7 7 7 8 9 10 12 13 15 16 17 19 19 18 18 17 19 19 19 20 19 19 19
19 19 19 19 19 20 21 20 20 19 17 14 12 10 10 9 7 7 6 5 4 4 5 5 6 8 10 11 12 14 16 18 20 21 19 18 18 15 18 19 19 17 17 18 20
18 18 18 18 19 20 20 19 19 17 15 13 11 11 9 8 7 6 5 5 4 4 5 6 8 8 10 13 14 15 17 18 15 15 15 14 13 15 18 17 15 15 15 16 18
17 17 17 18 18 19 18 18 17 16 14 13 11 10 8 6 6 5 5 5 5 6 7 8 9 11 11 13 14 14 12 11 14 11 13 12 15 17 19 18 20 21 21 21 15
16 17 17 17 17 18 17 17 15 14 13 12 10 8 6 5 4 4 5 5 6 7 8 9 9 10 11 11 12 11 11 12 15 17 15 14 17 18 19 20 21 20 17 12 15
15 15 15 15 16 16 16 15 14 13 12 10 9 6 6 5 4 4 4 5 6 8 9 9 9 9 10 8 10 12 14 14 15 16 19 19 20 21 21 20 15 10 10 12 13
14 14 15 15 16 16 16 14 12 10 10 9 7 7 4 4 4 5 5 7 8 8 7 9 8 10 10 9 11 12 14 16 17 19 17 19 21 25 20 11 10 9 11 14 16
15 15 14 14 14 15 13 11 10 10 8 7 6 5 5 5 5 5 6 6 7 8 9 8 8 7 9 11 13 16 17 19 18 17 19 21 22 14 12 11 11 13 14 15 16
13 13 13 13 13 12 11 9 8 8 6 4 4 3 4 4 4 5 5 6 6 6 6 6 8 8 10 13 15 15 16 17 18 20 20 18 18 15 15 13 14 16 17 17 19
11 11 12 12 10 10 8 7 7 7 5 4 4 3 3 3 2 2 3 3 5 6 8 8 7 8 11 13 14 16 17 19 21 19 17 17 19 18 15 16 17 19 20 21 22
10 10 10 9 8 8 7 6 6 6 4 3 3 3 2 2 2 3 3 5 6 8 7 9 10 11 13 14 16 17 20 22 22 21 20 16 15 18 14 17 20 21 22 25 26
8 8 8 7 7 7 6 6 6 4 3 2 2 1 2 0 1 3 3 7 7 9 8 11 12 13 12 16 19 20 21 26 19 15 14 17 16 17 19 19 21 24 26 28 30
6 6 5 5 5 4 5 5 4 4 3 2 2 0 1 2 3 4 4 8 7 10 11 14 11 11 14 17 18 21 21 19 16 15 15 16 17 17 17 18 22 27 29 31 34
6 5 5 4 4 4 5 4 3 3 2 1 1 3 1 4 4 7 5 7 10 10 12 13 14 14 17 14 18 19 16 14 18 17 20 24 19 20 18 20 24 27 31 34 37
5 5 4 3 4 4 4 3 3 1 2 2 4 3 2 3 5 6 7 8 9 12 12 14 14 16 16 17 17 19 18 17 19 22 21 20 18 19 21 25 28 31 34 37 39
4 4 3 3 4 4 3 3 2 1 2 3 3 3 2 5 6 8 7 10 10 12 13 14 17 16 16 18 18 17 17 18 19 20 22 24 23 22 25 31 34 37 40 41 41
3 2 1 3 3 2 2 1 2 0 1 2 3 4 4 6 8 9 8 11 11 14 17 17 14 18 19 17 18 20 20 20 21 20 21 25 25 23 27 35 41 46 49 47 44
1 2 3 1 2 1 1 1 1 2 3 3 3 5 6 7 8 8 8 10 12 16 16 17 16 19 20 22 19 19 20 21 20 25 25 25 34 31 35 41 46 46 45 43 41
1 1 1 1 1 1 1 1 1 3 4 4 4 6 7 7 8 9 10 11 13 15 16 18 18 21 20 20 21 21 24 25 26 26 28 26 33 34 44 47 45 47 42 42 43
2 3 3 2 3 3 3 3 4 5 5 6 6 8 8 10 10 11 12 13 15 16 16 19 19 19 19 21 25 27 28 29 28 27 34 36 45 44 44 46 44 41 41 43 44
4 5 5 6 5 4 5 6 6 7 7 8 8 8 9 11 13 13 14 16 17 17 18 19 21 22 25 28 29 32 34 32 32 33 31 42 41 42 41 39 41 42 44 46 46
6 6 7 7 7 6 8 9 9 9 10 10 10 10 12 13 14 16 17 18 19 20 20 21 23 25 28 28 28 32 32 35 32 32 33 36 39 38 41 42 44 44 44 45 47
8 8 9 11 11 10 12 11 11 11 13 12 12 13 15 15 17 19 20 21 21 21 22 23 23 25 25 27 31 27 25 25 28 29 31 37 41 38 41 44 43 45 45 47 47
Wind_Direction
169 171 174 176 178 181 182 182 181 180 180 181 183 186 190 195 196 190 195 204 215 225 234 240 244 249 251 259 261 267 276 277 282 293 287 295 300 295 297 297 298 290 284 281 267
157 162 165 169 171 174 176 177 176 176 177 178 180 184 189 193 192 196 208 211 220 228 236 244 251 259 261 261 265 266 269 272 274 287 290 294 298 297 299 297 291 293 291 286 270
145 152 157 161 165 168 171 171 172 172 173 175 177 182 186 187 191 200 208 215 225 234 239 250 254 259 262 260 265 266 269 278 287 288 290 292 296 294 298 292 288 291 293 281 276
140 146 151 155 159 163 165 165 167 169 170 172 175 178 181 180 185 201 206 215 226 235 247 251 257 260 263 268 269 273 275 281 286 293 291 290 292 291 286 284 287 286 288 285 276
135 141 145 149 154 157 160 162 164 166 168 170 172 174 173 179 181 189 198 209 225 239 246 257 267 270 272 281 285 276 283 287 290 290 288 290 288 286 288 290 289 288 285 281 280
131 136 141 145 148 152 156 159 162 164 167 169 170 172 173 177 182 183 193 211 222 245 253 262 271 276 277 278 282 286 289 292 293 289 287 283 286 288 293 294 291 288 286 284 284
127 132 137 141 145 149 154 157 161 164 167 169 169 171 175 181 189 195 205 213 236 250 260 275 282 285 290 289 290 289 294 299 293 293 287 290 294 286 296 301 298 291 288 290 293
126 131 135 139 143 148 152 156 160 164 168 170 170 172 176 184 194 205 225 242 251 261 272 281 286 285 284 293 298 290 295 300 305 307 302 298 290 294 297 295 293 291 287 289 286
125 130 134 139 144 148 151 155 160 164 168 171 171 176 182 185 201 227 235 255 267 270 276 285 289 286 297 297 303 302 296 299 307 307 304 297 296 299 297 296 292 289 290 289 294
126 131 135 140 144 147 150 153 156 159 163 169 180 177 192 198 222 232 245 260 272 284 282 282 288 294 301 302 292 297 303 300 299 304 309 303 300 303 299 296 303 305 288 295 303
124 128 133 137 142 145 145 148 152 156 167 170 180 183 195 214 229 244 267 274 275 282 288 282 300 285 291 296 295 298 300 301 300 305 312 306 306 309 309 308 306 303 300 298 298
120 124 129 135 140 146 148 151 153 161 159 175 184 202 227 236 245 261 285 279 286 285 294 298 288 285 299 304 306 304 302 302 304 311 310 306 304 320 320 308 300 295 295 298 299
120 124 129 135 140 146 149 153 162 165 170 187 201 208 226 233 244 276 291 289 277 289 305 284 295 296 307 311 310 305 304 308 304 309 306 306 304 296 301 300 298 299 295 297 298
122 126 130 133 137 146 147 155 160 165 156 187 205 216 232 221 240 275 304 295 299 302 312 300 302 318 319 314 319 311 310 310 309 314 305 311 296 285 289 297 300 301 301 299 299
122 130 135 137 141 144 151 153 158 161 140 162 168 187 191 194 214 281 314 313 299 304 315 297 310 314 314 313 316 303 312 308 301 298 305 306 296 298 289 298 302 303 304 303 301
126 131 138 139 140 144 151 156 154 145 170 162 166 235 216 275 287 303 322 329 315 311 302 293 305 315 312 313 311 311 315 310 307 300 300 298 283 290 292 293 300 301 304 304 304
133 139 147 152 158 159 158 155 140 142 174 133 135 112 328 303 312 327 336 343 333 329 326 318 316 311 319 316 318 326 323 318 317 311 295 310 307 290 289 297 303 305 304 303 304
122 130 137 144 161 159 154 147 138 129 135 222 279 287 307 323 311 320 322 325 338 329 316 319 315 318 320 317 313 316 318 315 307 306 301 309 291 282 283 295 302 303 304 302 303
108 122 123 144 153 154 150 129 171 229 274 307 302 294 287 312 322 329 328 324 329 334 328 326 312 316 321 316 319 316 319 307 307 301 303 297 303 288 291 299 303 305 306 303 302
112 118 98 124 143 144 142 157 177 262 285 292 291 298 305 314 319 327 316 322 322 330 328 321 315 315 314 315 317 313 310 316 312 306 302 301 293 292 301 303 305 307 307 303 301
118 108 100 131 140 130 153 166 187 278 293 311 307 310 317 318 316 320 319 321 323 321 322 321 316 312 319 318 312 315 312 310 304 298 296 302 297 296 302 307 308 309 307 305 301
96 121 134 131 135 108 156 232 240 292 311 315 307 322 314 318 314 319 315 319 320 321 322 321 314 310 307 310 308 310 309 308 305 302 298 297 297 303 307 309 309 306 307 305 304
169 181 216 202 214 253 230 263 293 295 309 308 307 317 312 313 313 314 317 310 316 321 319 320 316 317 316 318 316 317 313 311 305 301 297 295 298 306 308 308 307 306 304 304 305
247 255 273 268 259 217 228 251 276 297 295 304 297 297 304 303 307 307 311 303 309 315 314 317 311 304 304 307 310 306 308 306 302 302 301 293 298 305 306 307 309 309 308 307 306
276 261 255 270 282 268 270 265 269 280 288 293 295 300 303 304 307 302 309 312 307 308 311 314 309 307 305 306 307 305 305 303 299 297 295 302 300 304 309 310 311 309 309 308 307
271 267 277 268 273 273 278 275 272 280 283 283 290 289 299 298 302 302 308 308 306 306 310 310 310 312 309 306 306 306 306 305 303 302 301 302 305 309 311 311 310 310 310 309 308
285 277 272 273 277 277 275 276 277 279 286 289 290 293 296 297 301 301 301 302 302 307 308 309 311 315 311 316 315 314 312 314 313 310 310 308 310 312 312 312 312 311 310 309 308